[Date Prev][Date Next][Thread Prev][Thread Next] - [Date Index][Thread Index][Author Index]
2 Line ISS Keps 5-10
- Subject: [sarex] 2 Line ISS Keps 5-10
- From: "Dave Larsen PhD" <doc@xxxxxxxxxxx>
- Date: Mon, 9 May 2005 18:25:39 -0700
ISS
1 25544U 98067A 05129.97761316 .00014614 00000-0 11422-3 0 4339
2 25544 051.6441 096.5722 0007942 101.4740 327.5056 15.71883677369675
----
Via the sarex mailing list at AMSAT.ORG courtesy of AMSAT-NA.
To unsubscribe, send "unsubscribe sarex" to Majordomo@amsat.org
AMSAT Home